Terug naar catalogus

ARIANE 42P DEB

ActiefLEO
NORAD 44513·DEBRIS·🇫🇷 France

Gelanceerd Aug 10, 1992 vanaf Guiana Space Centre

Loading…

Volgende Passages (komende 24 uur)

TLE

VerouderendSource: Space-Track

Epoch: Sep 11, 2026, 01:14 UTC

1 44513U 92052L   26254.05207954 -.00000459  00000-0 -17355-2 0  9999
2 44513  66.0396 124.1885 0056712 257.7630 101.7030 12.80039190329716

Volg ARIANE 42P DEB in realtime met AllMySat

Download on the App Store